Perry, IA

8:45 PM CDT on March 28, 2017 (GMT -0500)
Perry Municipal

Weather History for KPRO - July, 2013

Change the Weather History Date:

Monday, July 1, 2013

  Actual Average Record
Temperature  
Mean Temperature 68 °F -  
Max Temperature 84 °F 83 °F 100 °F (1963)
Min Temperature 53 °F 61 °F 50 °F (1951)
Cooling Degree Days 4    
Growing Degree Days 18 (Base 50)    
Moisture  
Dew Point 47 °F    
Average Humidity 50    
Maximum Humidity 86    
Minimum Humidity 21    
Precipitation  
Precipitation 0.00 in - - ()
Sea Level Pressure  
Sea Level Pressure 30.13 in    
Wind  
Wind Speed 7 mph (NNE)    
Max Wind Speed 16 mph    
Max Gust Speed 22 mph    
Visibility 10 miles    
Events      
Averages and records for this station are not official NWS values.
T = Trace of Precipitation, MM = Missing Value Source: NWS Daily Summary

Daily Weather History Graph

Daily Weather History Graph

Search for Another Location

Airport or City:

Trip Planner

Search our weather history database for the weather conditions in past years. The results will help you decide how hot, cold, wet, or windy it might be!

Date:

Astronomy

Jul. 01, 2013 Rise Set
Actual Time 5:45 AM CDT 8:55 PM CDT
Civil Twilight 5:11 AM CDT 9:29 PM CDT
Nautical Twilight 4:27 AM CDT 10:13 PM CDT
Astronomical Twilight 3:35 AM CDT 11:05 PM CDT
Moon 1:19 AM CDT (7/1) 3:08 PM CDT (7/1)
Length of Visible Light 16h 18m
Length of Day
15h 09m
Waning Crescent, 35% of the Moon is Illuminated
Jul 1
Waning Crescent
Jul 8
New
Jul 15
First Quarter
Jul 22
Full
Jul 29
Last Quarter

Hourly Weather History & Observations

Time (CDT) Temp. Dew Point Humidity Pressure Visibility Wind Dir Wind Speed Gust Speed Precip Events Conditions
12:15 AM 58.8 °F 50.9 °F 75% 30.11 in 10.0 mi NNW 4.6 mph - N/A   Clear
12:35 AM 58.5 °F 50.4 °F 74% 30.11 in 10.0 mi North 4.6 mph - N/A   Clear
12:55 AM 58.6 °F 50.0 °F 73% 30.11 in 10.0 mi North 5.8 mph - N/A   Clear
1:15 AM 58.3 °F 50.2 °F 74% 30.11 in 10.0 mi NNW 5.8 mph - N/A   Clear
1:35 AM 58.1 °F 50.0 °F 74% 30.11 in 10.0 mi NNW 5.8 mph - N/A   Clear
1:55 AM 58.1 °F 49.6 °F 73% 30.11 in 10.0 mi NNW 5.8 mph - N/A   Clear
2:15 AM 57.0 °F 50.0 °F 77% 30.11 in 10.0 mi NNW 5.8 mph - N/A   Clear
2:35 AM 56.3 °F 50.0 °F 79% 30.11 in 10.0 mi NNW 5.8 mph - N/A   Clear
2:55 AM 56.1 °F 49.8 °F 79% 30.11 in 10.0 mi NNW 5.8 mph - N/A   Clear
3:15 AM 55.8 °F 50.0 °F 81% 30.11 in 10.0 mi NNW 5.8 mph - N/A   Clear
3:35 AM 56.3 °F 50.0 °F 79% 30.11 in 10.0 mi NNW 4.6 mph - N/A   Clear
3:55 AM 55.6 °F 50.2 °F 82% 30.11 in 10.0 mi NNW 5.8 mph - N/A   Clear
4:15 AM 55.9 °F 50.2 °F 81% 30.12 in 10.0 mi NNW 5.8 mph - N/A   Clear
4:35 AM 54.9 °F 50.0 °F 84% 30.13 in 10.0 mi NW 5.8 mph - N/A   Clear
4:55 AM 54.7 °F 50.2 °F 85% 30.13 in 10.0 mi NNW 5.8 mph - N/A   Clear
5:15 AM 54.5 °F 50.0 °F 85% 30.13 in 10.0 mi NW 5.8 mph - N/A   Clear
5:35 AM 53.8 °F 49.6 °F 86% 30.14 in 10.0 mi NW 4.6 mph - N/A   Clear
5:55 AM 54.0 °F 49.5 °F 85% 30.14 in 10.0 mi NW 4.6 mph - N/A   Clear
6:15 AM 54.1 °F 50.0 °F 86% 30.15 in 10.0 mi NW 4.6 mph - N/A   Clear
6:35 AM 54.9 °F 50.4 °F 85% 30.15 in 10.0 mi NW 4.6 mph - N/A   Clear
6:55 AM 56.8 °F 51.4 °F 82% 30.15 in 10.0 mi NW 4.6 mph - N/A   Clear
7:15 AM 58.3 °F 51.8 °F 79% 30.15 in 10.0 mi NW 4.6 mph - N/A   Clear
7:35 AM 60.1 °F 52.9 °F 77% 30.15 in 10.0 mi NW 4.6 mph - N/A   Clear
7:55 AM 62.4 °F 52.9 °F 71% 30.16 in 10.0 mi NNW 4.6 mph - N/A   Clear
8:15 AM 65.1 °F 52.7 °F 64% 30.16 in 10.0 mi North 4.6 mph - N/A   Clear
8:35 AM 67.3 °F 52.9 °F 60% 30.16 in 10.0 mi North 5.8 mph - N/A   Clear
8:55 AM 69.3 °F 52.7 °F 56% 30.17 in 10.0 mi North 5.8 mph - N/A   Clear
9:15 AM 71.6 °F 52.9 °F 52% 30.17 in 10.0 mi North 5.8 mph - N/A   Clear
9:35 AM 72.9 °F 52.9 °F 49% 30.16 in 10.0 mi North 8.1 mph - N/A   Scattered Clouds
9:55 AM 74.3 °F 52.9 °F 47% 30.16 in 10.0 mi North 6.9 mph - N/A   Mostly Cloudy
10:15 AM 75.6 °F 50.4 °F 41% 30.16 in 10.0 mi North 8.1 mph - N/A   Mostly Cloudy
10:35 AM 77.2 °F 49.3 °F 37% 30.16 in 10.0 mi North 9.2 mph - N/A   Scattered Clouds
10:55 AM 78.8 °F 49.1 °F 35% 30.16 in 10.0 mi NNE 10.4 mph - N/A   Clear
11:15 AM 79.7 °F 45.9 °F 30% 30.16 in 10.0 mi NNE 9.2 mph - N/A   Clear
11:35 AM 80.1 °F 44.4 °F 28% 30.16 in 10.0 mi North 11.5 mph - N/A   Clear
11:55 AM 80.8 °F 41.9 °F 25% 30.15 in 10.0 mi NNE 12.7 mph 18.4 mph N/A   Scattered Clouds
12:15 PM 81.3 °F 43.9 °F 27% 30.15 in 10.0 mi NE 9.2 mph 16.1 mph N/A   Scattered Clouds
12:35 PM 81.0 °F 44.4 °F 27% 30.15 in 10.0 mi NE 6.9 mph - N/A   Scattered Clouds
12:55 PM 81.5 °F 41.9 °F 25% 30.14 in 10.0 mi NE 12.7 mph - N/A   Scattered Clouds
1:15 PM 82.8 °F 40.5 °F 22% 30.14 in 10.0 mi North 15.0 mph - N/A   Clear
1:35 PM 83.3 °F 40.5 °F 22% 30.14 in 10.0 mi NNE 10.4 mph 17.3 mph N/A   Clear
1:55 PM 82.6 °F 40.6 °F 23% 30.13 in 10.0 mi NE 15.0 mph - N/A   Clear
2:15 PM 83.1 °F 40.1 °F 22% 30.13 in 10.0 mi NNE 13.8 mph 19.6 mph N/A   Scattered Clouds
2:35 PM 82.4 °F 40.3 °F 22% 30.13 in 10.0 mi NE 9.2 mph 19.6 mph N/A   Scattered Clouds
2:55 PM 83.8 °F 41.0 °F 22% 30.12 in 10.0 mi North 12.7 mph - N/A   Scattered Clouds
3:15 PM 84.0 °F 39.7 °F 21% 30.12 in 10.0 mi NNE 12.7 mph 20.7 mph N/A   Scattered Clouds
3:35 PM 83.7 °F 41.4 °F 22% 30.12 in 10.0 mi NNE 16.1 mph 19.6 mph N/A   Clear
3:55 PM 82.9 °F 43.5 °F 25% 30.11 in 10.0 mi NE 11.5 mph - N/A   Scattered Clouds
4:15 PM 83.1 °F 41.0 °F 22% 30.11 in 10.0 mi NE 13.8 mph - N/A   Scattered Clouds
4:35 PM 82.9 °F 43.5 °F 25% 30.11 in 10.0 mi NE 11.5 mph - N/A   Scattered Clouds
4:55 PM 82.4 °F 42.4 °F 24% 30.11 in 10.0 mi NE 15.0 mph 20.7 mph N/A   Scattered Clouds
5:15 PM 82.4 °F 43.5 °F 25% 30.11 in 10.0 mi ENE 12.7 mph 16.1 mph N/A   Clear
5:35 PM 82.0 °F 43.2 °F 25% 30.11 in 10.0 mi ENE 12.7 mph 19.6 mph N/A   Clear
5:55 PM 81.7 °F 42.6 °F 25% 30.11 in 10.0 mi NE 16.1 mph - N/A   Clear
6:15 PM 81.1 °F 41.2 °F 24% 30.11 in 10.0 mi ENE 16.1 mph 21.9 mph N/A   Clear
6:35 PM 80.8 °F 41.2 °F 24% 30.11 in 10.0 mi ENE 12.7 mph 18.4 mph N/A   Clear
6:55 PM 80.1 °F 43.3 °F 27% 30.11 in 10.0 mi ENE 9.2 mph - N/A   Clear
7:15 PM 79.7 °F 43.7 °F 28% 30.11 in 10.0 mi ENE 9.2 mph - N/A   Clear
7:35 PM 78.8 °F 43.3 °F 28% 30.11 in 10.0 mi ENE 9.2 mph - N/A   Clear
7:55 PM 77.9 °F 44.1 °F 30% 30.12 in 10.0 mi ENE 5.8 mph - N/A   Clear
8:15 PM 77.0 °F 43.7 °F 31% 30.12 in 10.0 mi ENE 6.9 mph - N/A   Clear
8:35 PM 75.6 °F 45.1 °F 34% 30.12 in 10.0 mi ENE 6.9 mph - N/A   Clear
8:55 PM 73.9 °F 46.2 °F 37% 30.12 in 10.0 mi ENE 4.6 mph - N/A   Clear
9:15 PM 72.7 °F 46.8 °F 40% 30.13 in 10.0 mi ENE 4.6 mph - N/A   Clear
9:35 PM 71.6 °F 47.3 °F 42% 30.13 in 10.0 mi East 5.8 mph - N/A   Clear
9:55 PM 68.9 °F 48.7 °F 49% 30.13 in 10.0 mi ENE 3.5 mph - N/A   Clear
10:15 PM 68.9 °F 48.4 °F 48% 30.14 in 10.0 mi Calm Calm - N/A   Clear
10:35 PM 69.1 °F 48.2 °F 47% 30.14 in 10.0 mi Calm Calm - N/A   Clear
10:55 PM 68.5 °F 48.4 °F 49% 30.14 in 10.0 mi Calm Calm - N/A   Clear
11:15 PM 67.6 °F 48.9 °F 51% 30.14 in 10.0 mi Calm Calm - N/A   Clear
11:35 PM 63.7 °F 51.8 °F 65% 30.14 in 10.0 mi Calm Calm - N/A   Clear
11:55 PM 61.3 °F 52.7 °F 73% 30.14 in 10.0 mi Calm Calm - N/A   Clear